Time,TemperatureF,DewpointF,PressureIn,WindDirection,WindDirectionDegrees,WindSpeedMPH,WindSpeedGustMPH,Humidity,HourlyPrecipIn,Conditions,Clouds,dailyrainin,SoftwareType,DateUTC
2013-06-14 00:01:00,64.0,59.1,29.05,North,0,0.0,0.0,84,0.00,,,0.00,WUHU216HW,2013-06-14 05:01:00,
2013-06-14 00:06:00,64.0,59.4,29.06,North,0,0.0,0.0,85,0.00,,,0.00,WUHU216HW,2013-06-14 05:06:00,
2013-06-14 00:11:00,63.6,59.0,29.05,North,0,0.0,0.0,85,0.00,,,0.00,WUHU216HW,2013-06-14 05:11:00,
2013-06-14 00:16:00,63.6,59.4,29.05,North,0,0.0,0.0,86,0.00,,,0.00,WUHU216HW,2013-06-14 05:16:00,
2013-06-14 00:21:00,63.6,59.4,29.06,North,0,0.0,0.0,86,0.00,,,0.00,WUHU216HW,2013-06-14 05:21:00,
2013-06-14 00:26:00,63.5,59.2,29.05,North,0,0.0,0.0,86,0.00,,,0.00,WUHU216HW,2013-06-14 05:26:00,
2013-06-14 00:31:00,63.3,59.0,29.05,North,0,0.0,0.0,86,0.00,,,0.00,WUHU216HW,2013-06-14 05:31:00,
2013-06-14 00:36:00,63.1,58.8,29.05,North,0,0.0,0.0,86,0.00,,,0.00,WUHU216HW,2013-06-14 05:36:00,
2013-06-14 00:41:00,63.1,58.8,29.06,North,0,0.0,0.0,86,0.00,,,0.00,WUHU216HW,2013-06-14 05:41:00,
2013-06-14 00:46:00,63.1,59.2,29.06,North,0,0.0,0.0,87,0.00,,,0.00,WUHU216HW,2013-06-14 05:46:00,
2013-06-14 00:51:00,63.1,59.2,29.06,North,0,0.0,0.0,87,0.00,,,0.00,WUHU216HW,2013-06-14 05:51:00,
2013-06-14 00:56:00,62.9,59.0,29.06,North,0,0.0,0.0,87,0.00,,,0.00,WUHU216HW,2013-06-14 05:56:00,
2013-06-14 01:01:00,63.1,59.0,29.06,North,0,0.0,0.0,87,0.00,,,0.00,WUHU216HW,2013-06-14 06:01:00,
2013-06-14 01:06:00,63.1,59.2,29.07,North,0,0.0,0.0,87,0.00,,,0.00,WUHU216HW,2013-06-14 06:06:00,
2013-06-14 01:11:00,63.1,59.2,29.07,North,0,0.0,0.0,87,0.00,,,0.00,WUHU216HW,2013-06-14 06:11:00,
2013-06-14 01:16:00,62.9,59.0,29.07,North,0,0.0,0.0,87,0.00,,,0.00,WUHU216HW,2013-06-14 06:16:00,
2013-06-14 01:21:00,62.9,59.0,29.07,North,0,0.0,0.0,87,0.00,,,0.00,WUHU216HW,2013-06-14 06:21:00,
2013-06-14 01:26:00,62.7,59.2,29.07,North,0,0.0,0.0,88,0.00,,,0.00,WUHU216HW,2013-06-14 06:26:00,
2013-06-14 01:31:00,62.9,59.3,29.07,North,0,0.0,0.0,88,0.00,,,0.00,WUHU216HW,2013-06-14 06:31:00,
2013-06-14 01:36:00,62.7,59.2,29.07,North,0,0.0,0.0,88,0.00,,,0.00,WUHU216HW,2013-06-14 06:36:00,
2013-06-14 01:41:00,62.6,59.0,29.07,North,0,0.0,0.0,88,0.00,,,0.00,WUHU216HW,2013-06-14 06:41:00,
2013-06-14 01:46:00,62.4,58.8,29.06,North,0,0.0,0.0,88,0.00,,,0.00,WUHU216HW,2013-06-14 06:46:00,
2013-06-14 01:51:00,62.4,58.8,29.06,North,0,0.0,0.0,88,0.00,,,0.00,WUHU216HW,2013-06-14 06:51:00,
2013-06-14 01:56:00,62.4,58.8,29.06,North,0,0.0,0.0,88,0.00,,,0.00,WUHU216HW,2013-06-14 06:56:00,
2013-06-14 02:01:00,62.4,58.8,29.07,North,0,0.0,0.0,88,0.00,,,0.00,WUHU216HW,2013-06-14 07:01:00,
2013-06-14 02:06:00,62.4,59.1,29.07,North,0,0.0,0.0,89,0.00,,,0.00,WUHU216HW,2013-06-14 07:06:00,
2013-06-14 02:11:00,62.4,59.1,29.06,North,0,0.0,0.0,89,0.00,,,0.00,WUHU216HW,2013-06-14 07:11:00,
2013-06-14 02:16:00,62.4,59.1,29.06,North,0,0.0,0.0,89,0.00,,,0.00,WUHU216HW,2013-06-14 07:16:00,
2013-06-14 02:21:00,62.6,59.3,29.06,North,0,0.0,0.0,89,0.00,,,0.00,WUHU216HW,2013-06-14 07:21:00,
2013-06-14 02:26:00,62.6,59.3,29.06,North,0,0.0,0.0,89,0.00,,,0.00,WUHU216HW,2013-06-14 07:26:00,
2013-06-14 02:31:00,62.4,59.1,29.07,North,0,0.0,0.0,89,0.00,,,0.00,WUHU216HW,2013-06-14 07:31:00,
2013-06-14 02:36:00,62.4,59.1,29.07,North,0,0.0,0.0,89,0.00,,,0.00,WUHU216HW,2013-06-14 07:36:00,
2013-06-14 02:41:00,62.6,59.3,29.07,North,0,0.0,0.0,89,0.00,,,0.00,WUHU216HW,2013-06-14 07:41:00,
2013-06-14 02:46:00,62.6,59.3,29.07,North,0,0.0,0.0,89,0.00,,,0.00,WUHU216HW,2013-06-14 07:46:00,
2013-06-14 02:51:00,62.6,59.3,29.07,North,0,0.0,0.0,89,0.00,,,0.00,WUHU216HW,2013-06-14 07:51:00,
2013-06-14 02:56:00,62.7,59.5,29.07,North,0,0.0,0.0,89,0.00,,,0.00,WUHU216HW,2013-06-14 07:56:00,
2013-06-14 03:02:00,62.7,59.5,29.07,North,0,0.0,0.0,89,0.00,,,0.00,WUHU216HW,2013-06-14 08:02:00,
2013-06-14 03:07:00,62.7,59.5,29.07,North,0,0.0,0.0,89,0.00,,,0.00,WUHU216HW,2013-06-14 08:07:00,
2013-06-14 03:11:00,62.7,59.5,29.07,North,0,0.0,0.0,89,0.00,,,0.00,WUHU216HW,2013-06-14 08:11:00,
2013-06-14 03:16:00,62.7,59.5,29.07,North,0,0.0,0.0,89,0.00,,,0.00,WUHU216HW,2013-06-14 08:16:00,
2013-06-14 03:21:00,62.7,59.5,29.07,North,0,0.0,0.0,89,0.00,,,0.00,WUHU216HW,2013-06-14 08:21:00,
2013-06-14 03:26:00,62.7,59.5,29.07,North,0,0.0,0.0,89,0.00,,,0.00,WUHU216HW,2013-06-14 08:26:00,
2013-06-14 03:31:00,62.7,59.5,29.07,North,0,0.0,0.0,89,0.00,,,0.00,WUHU216HW,2013-06-14 08:31:00,
2013-06-14 03:36:00,62.7,59.5,29.07,North,0,0.0,0.0,89,0.00,,,0.00,WUHU216HW,2013-06-14 08:36:00,
2013-06-14 03:41:00,62.7,59.5,29.07,North,0,0.0,0.0,89,0.00,,,0.00,WUHU216HW,2013-06-14 08:41:00,
2013-06-14 03:46:00,62.6,59.3,29.07,North,0,0.0,0.0,89,0.00,,,0.00,WUHU216HW,2013-06-14 08:46:00,
2013-06-14 03:51:00,62.6,59.3,29.07,North,0,0.0,0.0,89,0.00,,,0.00,WUHU216HW,2013-06-14 08:51:00,
2013-06-14 03:56:00,62.4,59.1,29.06,North,0,0.0,0.0,89,0.00,,,0.00,WUHU216HW,2013-06-14 08:56:00,
2013-06-14 04:01:00,62.4,59.1,29.07,North,0,0.0,0.0,89,0.00,,,0.00,WUHU216HW,2013-06-14 09:01:00,
2013-06-14 04:07:00,62.4,59.1,29.06,North,0,0.0,0.0,89,0.00,,,0.00,WUHU216HW,2013-06-14 09:07:00,
2013-06-14 04:11:00,62.2,59.0,29.05,North,0,0.0,0.0,89,0.00,,,0.00,WUHU216HW,2013-06-14 09:11:00,
2013-06-14 04:16:00,62.0,58.8,29.05,North,0,0.0,0.0,89,0.00,,,0.00,WUHU216HW,2013-06-14 09:16:00,
2013-06-14 04:22:00,61.8,58.6,29.05,North,0,0.0,0.0,89,0.00,,,0.00,WUHU216HW,2013-06-14 09:22:00,
2013-06-14 04:27:00,61.7,58.4,29.05,North,0,0.0,0.0,89,0.00,,,0.00,WUHU216HW,2013-06-14 09:27:00,
2013-06-14 04:32:00,62.0,59.1,29.04,North,0,0.0,0.0,90,0.00,,,0.00,WUHU216HW,2013-06-14 09:32:00,
2013-06-14 04:37:00,62.2,59.3,29.04,North,0,0.0,0.0,90,0.00,,,0.00,WUHU216HW,2013-06-14 09:37:00,
2013-06-14 04:42:00,62.2,59.3,29.04,North,0,0.0,0.0,90,0.00,,,0.00,WUHU216HW,2013-06-14 09:42:00,
2013-06-14 04:47:00,62.4,59.5,29.04,North,0,0.0,0.0,90,0.00,,,0.00,WUHU216HW,2013-06-14 09:47:00,
2013-06-14 04:52:00,62.4,59.5,29.04,North,0,0.0,0.0,90,0.00,,,0.00,WUHU216HW,2013-06-14 09:52:00,
2013-06-14 04:57:00,62.4,59.5,29.05,North,0,0.0,0.0,90,0.00,,,0.00,WUHU216HW,2013-06-14 09:57:00,
2013-06-14 05:02:00,62.6,59.7,29.05,North,0,0.0,0.0,90,0.00,,,0.00,WUHU216HW,2013-06-14 10:02:00,
2013-06-14 05:07:00,62.7,59.9,29.05,North,0,0.0,0.0,90,0.00,,,0.00,WUHU216HW,2013-06-14 10:07:00,
2013-06-14 05:12:00,62.9,60.0,29.05,North,0,0.0,0.0,90,0.00,,,0.00,WUHU216HW,2013-06-14 10:12:00,
2013-06-14 05:17:00,62.9,60.0,29.05,North,0,0.0,0.0,90,0.00,,,0.00,WUHU216HW,2013-06-14 10:17:00,
2013-06-14 05:22:00,62.7,59.9,29.04,North,0,0.0,0.0,90,0.00,,,0.00,WUHU216HW,2013-06-14 10:22:00,
2013-06-14 05:27:00,62.6,59.7,29.04,North,0,0.0,0.0,90,0.00,,,0.00,WUHU216HW,2013-06-14 10:27:00,
2013-06-14 05:32:00,62.4,59.5,29.04,North,0,0.0,0.0,90,0.00,,,0.00,WUHU216HW,2013-06-14 10:32:00,
2013-06-14 05:37:00,62.4,59.8,29.04,North,0,0.0,0.0,91,0.00,,,0.00,WUHU216HW,2013-06-14 10:37:00,
2013-06-14 05:42:00,62.7,60.1,29.04,North,0,0.0,0.0,91,0.00,,,0.00,WUHU216HW,2013-06-14 10:42:00,
2013-06-14 05:47:00,63.1,60.5,29.04,North,0,0.0,0.0,91,0.00,,,0.00,WUHU216HW,2013-06-14 10:47:00,
2013-06-14 05:52:00,63.1,60.5,29.04,North,0,0.0,0.0,91,0.00,,,0.00,WUHU216HW,2013-06-14 10:52:00,
2013-06-14 05:57:00,63.1,60.5,29.04,North,0,0.0,0.0,91,0.00,,,0.00,WUHU216HW,2013-06-14 10:57:00,
2013-06-14 06:02:00,63.5,60.7,29.04,North,0,0.0,0.0,91,0.00,,,0.00,WUHU216HW,2013-06-14 11:02:00,
2013-06-14 06:07:00,63.5,60.9,29.04,North,0,0.0,0.0,91,0.00,,,0.00,WUHU216HW,2013-06-14 11:07:00,
2013-06-14 06:12:00,63.6,61.0,29.04,North,0,0.0,0.0,91,0.00,,,0.00,WUHU216HW,2013-06-14 11:12:00,
2013-06-14 06:17:00,64.0,61.4,29.05,North,0,0.0,0.0,91,0.00,,,0.00,WUHU216HW,2013-06-14 11:17:00,
2013-06-14 06:22:00,64.2,61.6,29.05,North,0,0.0,0.0,91,0.00,,,0.00,WUHU216HW,2013-06-14 11:22:00,
2013-06-14 06:27:00,64.5,61.9,29.06,North,0,0.0,0.0,91,0.00,,,0.00,WUHU216HW,2013-06-14 11:27:00,
2013-06-14 06:32:00,64.7,62.2,29.06,North,0,0.0,0.0,91,0.00,,,0.00,WUHU216HW,2013-06-14 11:32:00,
2013-06-14 06:37:00,65.1,62.1,29.07,North,0,0.0,0.0,90,0.00,,,0.00,WUHU216HW,2013-06-14 11:37:00,
2013-06-14 06:42:00,65.4,62.4,29.07,North,0,0.0,0.0,90,0.00,,,0.00,WUHU216HW,2013-06-14 11:42:00,
2013-06-14 06:47:00,66.0,62.9,29.07,North,0,0.0,0.0,90,0.00,,,0.00,WUHU216HW,2013-06-14 11:47:00,
2013-06-14 06:52:00,66.3,63.3,29.07,North,0,0.0,0.0,90,0.00,,,0.00,WUHU216HW,2013-06-14 11:52:00,
2013-06-14 06:57:00,66.7,63.6,29.08,North,0,0.0,0.0,90,0.00,,,0.00,WUHU216HW,2013-06-14 11:57:00,
2013-06-14 07:02:00,67.2,63.8,29.08,NNE,23,0.0,0.0,89,0.00,,,0.00,WUHU216HW,2013-06-14 12:02:00,
2013-06-14 07:07:00,67.6,63.9,29.08,NNE,23,0.0,0.0,88,0.00,,,0.00,WUHU216HW,2013-06-14 12:07:00,
2013-06-14 07:12:00,68.0,64.6,29.08,NNE,23,0.0,0.0,89,0.00,,,0.00,WUHU216HW,2013-06-14 12:12:00,
2013-06-14 07:17:00,68.5,64.4,29.08,NNE,23,0.0,0.0,87,0.00,,,0.00,WUHU216HW,2013-06-14 12:17:00,
2013-06-14 07:22:00,68.7,64.6,29.08,NNE,23,0.0,0.0,87,0.00,,,0.00,WUHU216HW,2013-06-14 12:22:00,
2013-06-14 07:27:00,68.7,64.3,29.08,NNE,23,0.0,0.0,86,0.00,,,0.00,WUHU216HW,2013-06-14 12:27:00,
2013-06-14 07:32:00,69.2,64.8,29.08,NNE,23,0.0,0.0,86,0.00,,,0.00,WUHU216HW,2013-06-14 12:32:00,
2013-06-14 07:37:00,69.4,64.6,29.08,NNE,23,0.0,0.0,85,0.00,,,0.00,WUHU216HW,2013-06-14 12:37:00,
2013-06-14 07:42:00,69.6,64.8,29.08,NNE,23,0.0,0.0,85,0.00,,,0.00,WUHU216HW,2013-06-14 12:42:00,
2013-06-14 07:47:00,69.9,64.8,29.08,NNE,23,0.0,0.0,84,0.00,,,0.00,WUHU216HW,2013-06-14 12:47:00,
2013-06-14 07:52:00,70.3,65.2,29.08,NNE,23,0.0,0.0,84,0.00,,,0.00,WUHU216HW,2013-06-14 12:52:00,
2013-06-14 07:57:00,70.8,65.7,29.07,NNE,23,0.0,0.0,84,0.00,,,0.00,WUHU216HW,2013-06-14 12:57:00,
2013-06-14 08:02:00,71.9,66.1,29.07,NNE,23,0.0,0.0,82,0.00,,,0.00,WUHU216HW,2013-06-14 13:02:00,
2013-06-14 08:07:00,72.5,66.0,29.07,NNE,23,0.0,0.0,80,0.00,,,0.00,WUHU216HW,2013-06-14 13:07:00,
2013-06-14 08:12:00,73.2,66.7,29.07,ENE,68,0.0,0.0,80,0.00,,,0.00,WUHU216HW,2013-06-14 13:12:00,
2013-06-14 08:17:00,73.9,66.6,29.08,ENE,68,0.0,0.0,78,0.00,,,0.00,WUHU216HW,2013-06-14 13:17:00,
2013-06-14 08:22:00,74.4,66.4,29.07,SE,135,0.0,3.5,76,0.00,,,0.00,WUHU216HW,2013-06-14 13:22:00,
2013-06-14 08:27:00,74.8,66.3,29.07,SE,135,0.0,3.5,75,0.00,,,0.00,WUHU216HW,2013-06-14 13:27:00,
2013-06-14 08:32:00,75.0,66.5,29.07,SE,135,0.0,0.0,75,0.00,,,0.00,WUHU216HW,2013-06-14 13:32:00,
2013-06-14 08:37:00,75.3,66.5,29.08,SE,135,0.0,0.0,74,0.00,,,0.00,WUHU216HW,2013-06-14 13:37:00,
2013-06-14 08:42:00,75.5,66.6,29.08,SE,135,0.0,0.0,74,0.00,,,0.00,WUHU216HW,2013-06-14 13:42:00,
2013-06-14 08:47:00,75.5,65.8,29.08,SE,135,0.0,0.0,72,0.00,,,0.00,WUHU216HW,2013-06-14 13:47:00,
2013-06-14 08:52:00,75.7,66.4,29.08,ESE,113,5.5,5.5,73,0.00,,,0.00,WUHU216HW,2013-06-14 13:52:00,
2013-06-14 08:57:00,75.9,65.8,29.08,SE,135,4.4,5.5,71,0.00,,,0.00,WUHU216HW,2013-06-14 13:57:00,
2013-06-14 09:02:00,75.7,65.3,29.08,SE,135,0.0,6.0,70,0.00,,,0.00,WUHU216HW,2013-06-14 14:02:00,
2013-06-14 09:07:00,75.3,65.3,29.08,SE,135,0.0,6.0,71,0.00,,,0.00,WUHU216HW,2013-06-14 14:07:00,
2013-06-14 09:12:00,75.5,65.4,29.08,SE,135,0.0,0.0,71,0.00,,,0.00,WUHU216HW,2013-06-14 14:12:00,
2013-06-14 09:17:00,76.1,65.6,29.08,SSE,158,3.3,3.3,70,0.00,,,0.00,WUHU216HW,2013-06-14 14:17:00,
2013-06-14 09:22:00,76.2,65.3,29.08,SE,135,0.0,3.3,69,0.00,,,0.00,WUHU216HW,2013-06-14 14:22:00,
2013-06-14 09:27:00,76.6,65.7,29.08,SE,135,0.0,3.3,69,0.00,,,0.00,WUHU216HW,2013-06-14 14:27:00,
2013-06-14 09:32:00,77.5,66.1,29.08,SE,135,4.9,4.9,68,0.00,,,0.00,WUHU216HW,2013-06-14 14:32:00,
2013-06-14 09:37:00,77.9,66.0,29.08,SE,135,6.2,6.2,67,0.00,,,0.00,WUHU216HW,2013-06-14 14:37:00,
2013-06-14 09:42:00,78.6,66.7,29.08,SE,135,0.0,6.2,67,0.00,,,0.00,WUHU216HW,2013-06-14 14:42:00,
2013-06-14 09:47:00,79.7,66.8,29.07,SSE,158,4.0,6.2,65,0.00,,,0.00,WUHU216HW,2013-06-14 14:47:00,
2013-06-14 09:52:00,80.0,66.7,29.07,East,90,0.0,4.0,64,0.00,,,0.00,WUHU216HW,2013-06-14 14:52:00,
2013-06-14 09:57:00,80.2,66.0,29.07,SE,135,12.0,12.0,62,0.00,,,0.00,WUHU216HW,2013-06-14 14:57:00,
2013-06-14 10:02:00,80.4,66.2,29.07,SE,135,4.4,12.0,62,0.00,,,0.00,WUHU216HW,2013-06-14 15:02:00,
2013-06-14 10:07:00,80.4,66.2,29.06,SE,135,0.0,4.4,62,0.00,,,0.00,WUHU216HW,2013-06-14 15:07:00,
2013-06-14 10:12:00,80.9,67.1,29.06,SE,135,0.0,4.4,63,0.00,,,0.00,WUHU216HW,2013-06-14 15:12:00,
2013-06-14 10:17:00,82.0,67.2,29.05,SE,135,0.0,0.0,61,0.00,,,0.00,WUHU216HW,2013-06-14 15:17:00,
2013-06-14 10:22:00,82.2,66.9,29.05,SE,135,6.0,6.0,60,0.00,,,0.00,WUHU216HW,2013-06-14 15:22:00,
2013-06-14 10:27:00,82.5,67.7,29.05,SSE,158,8.5,8.5,61,0.00,,,0.00,WUHU216HW,2013-06-14 15:27:00,
2013-06-14 10:32:00,82.5,67.2,29.05,SE,135,0.0,8.5,60,0.00,,,0.00,WUHU216HW,2013-06-14 15:32:00,
2013-06-14 10:37:00,83.1,68.2,29.04,SE,135,0.0,3.3,61,0.00,,,0.00,WUHU216HW,2013-06-14 15:37:00,
2013-06-14 10:42:00,84.0,69.1,29.04,SE,135,0.0,3.3,61,0.00,,,0.00,WUHU216HW,2013-06-14 15:42:00,
2013-06-14 10:47:00,84.7,69.3,29.04,SE,135,0.0,1.5,60,0.00,,,0.00,WUHU216HW,2013-06-14 15:47:00,
2013-06-14 10:52:00,85.2,69.3,29.05,SE,135,0.0,4.6,59,0.00,,,0.00,WUHU216HW,2013-06-14 15:52:00,
2013-06-14 10:57:00,85.6,69.6,29.04,SE,135,0.0,4.6,59,0.00,,,0.00,WUHU216HW,2013-06-14 15:57:00,
2013-06-14 11:02:00,86.1,69.6,29.04,SE,135,0.0,0.0,58,0.00,,,0.00,WUHU216HW,2013-06-14 16:02:00,
2013-06-14 11:07:00,86.1,68.5,29.04,East,90,0.0,5.3,56,0.00,,,0.00,WUHU216HW,2013-06-14 16:07:00,
2013-06-14 11:12:00,86.0,68.9,29.04,ESE,113,0.0,5.3,57,0.00,,,0.00,WUHU216HW,2013-06-14 16:12:00,
2013-06-14 11:17:00,85.8,68.2,29.05,SE,135,0.0,0.0,56,0.00,,,0.00,WUHU216HW,2013-06-14 16:17:00,
2013-06-14 11:22:00,85.8,68.7,29.04,SE,135,0.0,0.0,57,0.00,,,0.00,WUHU216HW,2013-06-14 16:22:00,
2013-06-14 11:27:00,86.5,68.9,29.04,SE,135,5.3,5.3,56,0.00,,,0.00,WUHU216HW,2013-06-14 16:27:00,
2013-06-14 11:32:00,87.6,69.4,29.05,SSE,158,7.1,7.1,55,0.00,,,0.00,WUHU216HW,2013-06-14 16:32:00,
2013-06-14 11:37:00,88.5,69.7,29.05,ESE,113,0.0,7.1,54,0.00,,,0.00,WUHU216HW,2013-06-14 16:37:00,
2013-06-14 11:42:00,89.4,70.5,29.04,ESE,113,0.6,7.1,54,0.00,,,0.00,WUHU216HW,2013-06-14 16:42:00,
2013-06-14 11:47:00,90.5,70.9,29.04,SE,135,0.0,3.1,53,0.00,,,0.00,WUHU216HW,2013-06-14 16:47:00,
2013-06-14 11:52:00,92.1,71.8,29.04,ENE,68,5.1,5.1,52,0.00,,,0.00,WUHU216HW,2013-06-14 16:52:00,
2013-06-14 11:57:00,92.8,71.4,29.04,SSE,158,0.0,5.1,50,0.00,,,0.00,WUHU216HW,2013-06-14 16:57:00,
2013-06-14 12:02:00,93.9,72.5,29.05,SE,135,0.0,6.0,50,0.00,,,0.00,WUHU216HW,2013-06-14 17:02:00,
2013-06-14 12:07:00,94.4,72.3,29.04,SSE,158,0.0,6.0,49,0.00,,,0.00,WUHU216HW,2013-06-14 17:07:00,
2013-06-14 12:12:00,94.2,72.1,29.04,ESE,113,2.9,2.9,49,0.00,,,0.00,WUHU216HW,2013-06-14 17:12:00,
2013-06-14 12:17:00,93.7,71.6,29.04,SE,135,1.7,9.3,49,0.00,,,0.00,WUHU216HW,2013-06-14 17:17:00,
2013-06-14 12:22:00,93.3,71.2,29.04,SE,135,0.0,9.3,49,0.00,,,0.00,WUHU216HW,2013-06-14 17:22:00,
2013-06-14 12:27:00,92.8,71.4,29.03,SSE,158,0.0,1.7,50,0.00,,,0.00,WUHU216HW,2013-06-14 17:27:00,
2013-06-14 12:32:00,91.0,70.3,29.03,SE,135,0.0,0.0,51,0.00,,,0.00,WUHU216HW,2013-06-14 17:32:00,
2013-06-14 12:37:00,90.1,70.1,29.03,ESE,113,4.6,4.6,52,0.00,,,0.00,WUHU216HW,2013-06-14 17:37:00,
2013-06-14 12:42:00,90.5,70.9,29.03,SSE,158,5.3,5.3,53,0.00,,,0.00,WUHU216HW,2013-06-14 17:42:00,
2013-06-14 12:47:00,91.2,71.0,29.03,SE,135,7.1,8.0,52,0.00,,,0.00,WUHU216HW,2013-06-14 17:47:00,
2013-06-14 12:52:00,91.2,71.0,29.03,SSE,158,1.7,8.0,52,0.00,,,0.00,WUHU216HW,2013-06-14 17:52:00,
2013-06-14 12:57:00,91.2,71.0,29.03,SSE,158,7.8,7.8,52,0.00,,,0.00,WUHU216HW,2013-06-14 17:57:00,
2013-06-14 13:02:00,91.5,71.9,29.02,SSE,158,0.0,7.8,53,0.00,,,0.00,WUHU216HW,2013-06-14 18:02:00,
2013-06-14 13:07:00,92.3,72.6,29.03,SE,135,0.0,0.4,53,0.00,,,0.00,WUHU216HW,2013-06-14 18:07:00,
2013-06-14 13:12:00,92.6,72.3,29.02,SE,135,0.0,0.0,52,0.00,,,0.00,WUHU216HW,2013-06-14 18:12:00,
2013-06-14 13:17:00,93.2,72.3,29.02,ESE,113,0.6,0.6,51,0.00,,,0.00,WUHU216HW,2013-06-14 18:17:00,
2013-06-14 13:22:00,93.2,72.8,29.02,ESE,113,0.0,6.2,52,0.00,,,0.00,WUHU216HW,2013-06-14 18:22:00,
2013-06-14 13:27:00,93.7,73.4,29.01,SSE,158,0.0,6.2,52,0.00,,,0.00,WUHU216HW,2013-06-14 18:27:00,
2013-06-14 13:32:00,93.7,72.3,29.02,ESE,113,0.0,5.5,50,0.00,,,0.00,WUHU216HW,2013-06-14 18:32:00,
2013-06-14 13:38:00,93.5,72.1,29.02,SE,135,0.0,5.5,50,0.00,,,0.00,WUHU216HW,2013-06-14 18:38:00,
2013-06-14 13:43:00,93.3,72.5,29.02,SSE,158,2.0,5.5,51,0.00,,,0.00,WUHU216HW,2013-06-14 18:43:00,
2013-06-14 13:48:00,93.9,72.5,29.02,SE,135,0.0,2.0,50,0.00,,,0.00,WUHU216HW,2013-06-14 18:48:00,
2013-06-14 13:53:00,93.7,72.8,29.02,ESE,113,0.0,0.0,51,0.00,,,0.00,WUHU216HW,2013-06-14 18:53:00,
2013-06-14 13:58:00,93.7,72.8,29.02,SE,135,0.0,0.0,51,0.00,,,0.00,WUHU216HW,2013-06-14 18:58:00,
2013-06-14 14:03:00,93.7,72.8,29.02,ENE,68,0.0,0.0,51,0.00,,,0.00,WUHU216HW,2013-06-14 19:03:00,
2013-06-14 14:08:00,93.0,72.7,29.02,ESE,113,0.0,0.0,52,0.00,,,0.00,WUHU216HW,2013-06-14 19:08:00,
2013-06-14 14:13:00,92.8,73.1,29.02,SSE,158,4.0,4.0,53,0.00,,,0.00,WUHU216HW,2013-06-14 19:13:00,
2013-06-14 14:18:00,93.0,73.2,29.02,SE,135,0.0,4.0,53,0.00,,,0.00,WUHU216HW,2013-06-14 19:18:00,
2013-06-14 14:23:00,93.2,73.4,29.01,SE,135,0.0,0.0,53,0.00,,,0.00,WUHU216HW,2013-06-14 19:23:00,
2013-06-14 14:28:00,93.3,73.0,29.02,SE,135,2.6,2.6,52,0.00,,,0.00,WUHU216HW,2013-06-14 19:28:00,
2013-06-14 14:33:00,92.8,73.1,29.01,ESE,113,0.0,5.3,53,0.00,,,0.00,WUHU216HW,2013-06-14 19:33:00,
2013-06-14 14:38:00,92.3,73.1,29.01,ESE,113,0.0,9.1,54,0.00,,,0.00,WUHU216HW,2013-06-14 19:38:00,
2013-06-14 14:43:00,93.0,74.2,29.01,SE,135,0.0,9.1,55,0.00,,,0.00,WUHU216HW,2013-06-14 19:43:00,
2013-06-14 14:48:00,93.3,73.6,29.01,WSW,248,0.0,0.0,53,0.00,,,0.00,WUHU216HW,2013-06-14 19:48:00,
2013-06-14 14:53:00,93.9,74.1,29.00,WSW,248,2.4,5.1,53,0.00,,,0.00,WUHU216HW,2013-06-14 19:53:00,
2013-06-14 14:58:00,93.7,73.9,29.00,WSW,248,0.0,5.1,53,0.00,,,0.00,WUHU216HW,2013-06-14 19:58:00,
2013-06-14 15:03:00,93.9,74.1,29.00,WSW,248,0.0,5.8,53,0.00,,,0.00,WUHU216HW,2013-06-14 20:03:00,
2013-06-14 15:08:00,93.5,74.3,29.00,WSW,248,0.8,5.8,54,0.00,,,0.00,WUHU216HW,2013-06-14 20:08:00,
2013-06-14 15:13:00,93.5,74.3,28.99,WSW,248,0.0,0.8,54,0.00,,,0.00,WUHU216HW,2013-06-14 20:13:00,
2013-06-14 15:18:00,93.5,73.7,28.99,WSW,248,4.0,4.0,53,0.00,,,0.00,WUHU216HW,2013-06-14 20:18:00,
2013-06-14 15:23:00,93.9,74.6,28.99,WSW,248,0.0,4.0,54,0.00,,,0.00,WUHU216HW,2013-06-14 20:23:00,
2013-06-14 15:28:00,93.9,74.1,28.99,WSW,248,0.0,1.1,53,0.00,,,0.00,WUHU216HW,2013-06-14 20:28:00,
2013-06-14 15:33:00,93.0,73.8,28.99,WSW,248,10.0,10.0,54,0.00,,,0.00,WUHU216HW,2013-06-14 20:33:00,
2013-06-14 15:38:00,92.1,73.5,28.98,ESE,113,0.0,10.0,55,0.00,,,0.00,WUHU216HW,2013-06-14 20:38:00,
2013-06-14 15:43:00,91.7,73.7,28.98,WSW,248,0.6,6.9,56,0.00,,,0.00,WUHU216HW,2013-06-14 20:43:00,
2013-06-14 15:48:00,91.9,74.4,28.98,WSW,248,0.0,3.8,57,0.00,,,0.00,WUHU216HW,2013-06-14 20:48:00,
2013-06-14 15:54:00,92.8,75.3,28.97,WSW,248,0.0,3.8,57,0.00,,,0.00,WUHU216HW,2013-06-14 20:54:00,
2013-06-14 15:59:00,93.0,75.5,28.97,WSW,248,0.0,0.0,57,0.00,,,0.00,WUHU216HW,2013-06-14 20:59:00,
2013-06-14 16:04:00,93.5,74.9,28.97,WSW,248,8.0,8.0,55,0.00,,,0.00,WUHU216HW,2013-06-14 21:04:00,
2013-06-14 16:09:00,93.7,75.0,28.97,WSW,248,2.4,8.0,55,0.00,,,0.00,WUHU216HW,2013-06-14 21:09:00,
2013-06-14 16:14:00,93.5,74.9,28.96,WSW,248,0.0,2.4,55,0.00,,,0.00,WUHU216HW,2013-06-14 21:14:00,
2013-06-14 16:19:00,93.3,75.2,28.96,WSW,248,0.0,2.4,56,0.00,,,0.00,WUHU216HW,2013-06-14 21:19:00,
2013-06-14 16:24:00,93.7,75.6,28.96,WSW,248,0.0,7.3,56,0.00,,,0.00,WUHU216HW,2013-06-14 21:24:00,
2013-06-14 16:29:00,93.7,75.0,28.96,WSW,248,0.8,7.3,55,0.00,,,0.00,WUHU216HW,2013-06-14 21:29:00,
2013-06-14 16:34:00,93.3,74.7,28.96,WSW,248,1.5,1.5,55,0.00,,,0.00,WUHU216HW,2013-06-14 21:34:00,
2013-06-14 16:39:00,93.3,75.2,28.96,WSW,248,0.0,1.5,56,0.00,,,0.00,WUHU216HW,2013-06-14 21:39:00,
2013-06-14 16:44:00,93.3,74.7,28.96,WSW,248,0.0,0.0,55,0.00,,,0.00,WUHU216HW,2013-06-14 21:44:00,
2013-06-14 16:49:00,93.0,74.9,28.96,WSW,248,0.0,0.0,56,0.00,,,0.00,WUHU216HW,2013-06-14 21:49:00,
2013-06-14 16:54:00,92.8,75.3,28.96,WSW,248,0.0,0.0,57,0.00,,,0.00,WUHU216HW,2013-06-14 21:54:00,
2013-06-14 16:59:00,93.0,74.9,28.96,WSW,248,2.9,7.3,56,0.00,,,0.00,WUHU216HW,2013-06-14 21:59:00,
2013-06-14 17:04:00,92.6,75.1,28.96,WSW,248,0.0,7.3,57,0.00,,,0.00,WUHU216HW,2013-06-14 22:04:00,
2013-06-14 17:09:00,92.8,75.3,28.96,WSW,248,0.0,6.7,57,0.00,,,0.00,WUHU216HW,2013-06-14 22:09:00,
2013-06-14 17:14:00,92.3,74.8,28.96,SE,135,0.0,6.7,57,0.00,,,0.00,WUHU216HW,2013-06-14 22:14:00,
2013-06-14 17:19:00,91.9,74.4,28.96,WSW,248,0.0,8.0,57,0.00,,,0.00,WUHU216HW,2013-06-14 22:19:00,
2013-06-14 17:24:00,91.4,74.4,28.96,WSW,248,0.0,8.0,58,0.00,,,0.00,WUHU216HW,2013-06-14 22:24:00,
2013-06-14 17:29:00,91.5,75.1,28.95,WSW,248,7.6,7.6,59,0.00,,,0.00,WUHU216HW,2013-06-14 22:29:00,
2013-06-14 17:34:00,91.7,75.3,28.95,SE,135,0.0,7.6,59,0.00,,,0.00,WUHU216HW,2013-06-14 22:34:00,
2013-06-14 17:39:00,91.2,74.3,28.95,ESE,113,0.0,2.2,58,0.00,,,0.00,WUHU216HW,2013-06-14 22:39:00,
2013-06-14 17:44:00,90.6,74.3,28.95,SE,135,6.0,6.0,59,0.00,,,0.00,WUHU216HW,2013-06-14 22:44:00,
2013-06-14 17:49:00,90.1,74.4,28.95,SE,135,0.0,6.0,60,0.00,,,0.00,WUHU216HW,2013-06-14 22:49:00,
2013-06-14 17:54:00,89.6,74.4,28.95,WSW,248,0.0,2.0,61,0.00,,,0.00,WUHU216HW,2013-06-14 22:54:00,
2013-06-14 17:59:00,90.5,75.2,28.95,SE,135,0.0,0.0,61,0.00,,,0.00,WUHU216HW,2013-06-14 22:59:00,
2013-06-14 18:04:00,90.5,74.7,28.95,WSW,248,0.0,0.0,60,0.00,,,0.00,WUHU216HW,2013-06-14 23:04:00,
2013-06-14 18:09:00,90.1,74.8,28.94,SE,135,0.0,0.0,61,0.00,,,0.00,WUHU216HW,2013-06-14 23:09:00,
2013-06-14 18:14:00,89.7,75.0,28.94,WSW,248,4.6,4.6,62,0.00,,,0.00,WUHU216HW,2013-06-14 23:14:00,
2013-06-14 18:19:00,89.4,74.6,28.94,SE,135,0.0,4.6,62,0.00,,,0.00,WUHU216HW,2013-06-14 23:19:00,
2013-06-14 18:24:00,89.4,75.1,28.94,SE,135,0.0,0.0,63,0.00,,,0.00,WUHU216HW,2013-06-14 23:24:00,
2013-06-14 18:29:00,89.4,75.1,28.94,SE,135,0.0,0.0,63,0.00,,,0.00,WUHU216HW,2013-06-14 23:29:00,
2013-06-14 18:34:00,89.0,74.8,28.94,SE,135,0.0,0.0,63,0.00,,,0.00,WUHU216HW,2013-06-14 23:34:00,
2013-06-14 18:39:00,88.5,74.7,28.94,SE,135,0.0,0.0,64,0.00,,,0.00,WUHU216HW,2013-06-14 23:39:00,
2013-06-14 18:44:00,88.1,74.9,28.94,WSW,248,5.8,5.8,65,0.00,,,0.00,WUHU216HW,2013-06-14 23:44:00,
2013-06-14 18:49:00,88.8,75.5,28.94,WSW,248,0.0,5.8,65,0.00,,,0.00,WUHU216HW,2013-06-14 23:49:00,
2013-06-14 18:54:00,90.1,75.8,28.94,SE,135,0.0,5.8,63,0.00,,,0.00,WUHU216HW,2013-06-14 23:54:00,
2013-06-14 18:59:00,89.4,74.6,28.95,SE,135,0.0,0.8,62,0.00,,,0.00,WUHU216HW,2013-06-14 23:59:00,
2013-06-14 19:04:00,88.5,74.3,28.95,SE,135,0.0,0.8,63,0.00,,,0.00,WUHU216HW,2013-06-15 00:04:00,
2013-06-14 19:09:00,87.8,74.1,28.95,SE,135,0.0,0.0,64,0.00,,,0.00,WUHU216HW,2013-06-15 00:09:00,
2013-06-14 19:14:00,87.0,74.3,28.95,SE,135,0.0,0.0,66,0.00,,,0.00,WUHU216HW,2013-06-15 00:14:00,
2013-06-14 19:19:00,87.0,74.3,28.96,ESE,113,0.0,0.0,66,0.00,,,0.00,WUHU216HW,2013-06-15 00:19:00,
2013-06-14 19:24:00,86.7,73.9,28.96,SE,135,0.0,0.0,66,0.00,,,0.00,WUHU216HW,2013-06-15 00:24:00,
2013-06-14 19:29:00,86.1,73.9,28.95,SE,135,0.0,0.0,67,0.00,,,0.00,WUHU216HW,2013-06-15 00:29:00,
2013-06-14 19:34:00,85.8,73.6,28.96,ENE,68,0.0,0.0,67,0.00,,,0.00,WUHU216HW,2013-06-15 00:34:00,
2013-06-14 19:39:00,85.2,73.5,28.96,SE,135,0.0,5.1,68,0.00,,,0.00,WUHU216HW,2013-06-15 00:39:00,
2013-06-14 19:44:00,84.7,73.4,28.96,SE,135,0.0,5.1,69,0.00,,,0.00,WUHU216HW,2013-06-15 00:44:00,
2013-06-14 19:49:00,84.3,73.5,28.96,SE,135,0.0,0.0,70,0.00,,,0.00,WUHU216HW,2013-06-15 00:49:00,
2013-06-14 19:54:00,84.0,73.2,28.96,SSE,158,4.6,4.6,70,0.00,,,0.00,WUHU216HW,2013-06-15 00:54:00,
2013-06-14 19:59:00,83.8,73.4,28.96,SE,135,0.0,4.6,71,0.00,,,0.00,WUHU216HW,2013-06-15 00:59:00,
2013-06-14 20:04:00,83.4,73.0,28.97,NE,45,0.0,4.6,71,0.00,,,0.00,WUHU216HW,2013-06-15 01:04:00,
2013-06-14 20:09:00,83.3,72.8,28.96,NE,45,0.0,0.0,71,0.00,,,0.00,WUHU216HW,2013-06-15 01:09:00,
2013-06-14 20:14:00,82.9,72.5,28.97,ENE,68,0.0,0.0,71,0.00,,,0.00,WUHU216HW,2013-06-15 01:14:00,
2013-06-14 20:19:00,82.7,72.7,28.97,SE,135,0.0,0.0,72,0.00,,,0.00,WUHU216HW,2013-06-15 01:19:00,
2013-06-14 20:24:00,82.4,72.4,28.97,SE,135,0.0,0.0,72,0.00,,,0.00,WUHU216HW,2013-06-15 01:24:00,
2013-06-14 20:29:00,82.0,72.5,28.97,SE,135,0.0,0.0,73,0.00,,,0.00,WUHU216HW,2013-06-15 01:29:00,
2013-06-14 20:34:00,81.6,72.5,28.96,SE,135,0.0,0.0,74,0.00,,,0.00,WUHU216HW,2013-06-15 01:34:00,
2013-06-14 20:39:00,81.3,72.2,28.96,SE,135,0.0,0.0,74,0.00,,,0.00,WUHU216HW,2013-06-15 01:39:00,
2013-06-14 20:44:00,80.9,72.3,28.96,SE,135,0.0,0.0,75,0.00,,,0.00,WUHU216HW,2013-06-15 01:44:00,
2013-06-14 20:49:00,80.6,71.9,28.96,SE,135,0.0,0.0,75,0.00,,,0.00,WUHU216HW,2013-06-15 01:49:00,
2013-06-14 20:54:00,80.4,72.1,28.96,SE,135,0.0,0.0,76,0.00,,,0.00,WUHU216HW,2013-06-15 01:54:00,
2013-06-14 20:59:00,80.2,71.9,28.96,SE,135,0.0,0.0,76,0.00,,,0.00,WUHU216HW,2013-06-15 01:59:00,
2013-06-14 21:04:00,80.0,71.8,28.96,SE,135,0.0,0.0,76,0.00,,,0.00,WUHU216HW,2013-06-15 02:04:00,
2013-06-14 21:10:00,79.8,72.0,28.96,SE,135,3.3,3.3,77,0.00,,,0.00,WUHU216HW,2013-06-15 02:10:00,
2013-06-14 21:15:00,79.8,72.0,28.96,SE,135,0.0,3.3,77,0.00,,,0.00,WUHU216HW,2013-06-15 02:15:00,
2013-06-14 21:20:00,79.7,71.8,28.96,SE,135,0.0,0.0,77,0.00,,,0.00,WUHU216HW,2013-06-15 02:20:00,
2013-06-14 21:25:00,79.5,71.6,28.96,SE,135,0.0,0.0,77,0.00,,,0.00,WUHU216HW,2013-06-15 02:25:00,
2013-06-14 21:30:00,79.5,72.0,28.96,SE,135,0.0,5.3,78,0.00,,,0.00,WUHU216HW,2013-06-15 02:30:00,
2013-06-14 21:35:00,79.3,71.8,28.96,SE,135,0.0,5.3,78,0.00,,,0.00,WUHU216HW,2013-06-15 02:35:00,
2013-06-14 21:40:00,79.3,71.8,28.97,SE,135,0.0,0.0,78,0.00,,,0.00,WUHU216HW,2013-06-15 02:40:00,
2013-06-14 21:45:00,79.1,71.7,28.97,SE,135,0.0,0.0,78,0.00,,,0.00,WUHU216HW,2013-06-15 02:45:00,
2013-06-14 21:50:00,78.9,71.5,28.98,SE,135,0.0,0.0,78,0.00,,,0.00,WUHU216HW,2013-06-15 02:50:00,
2013-06-14 21:55:00,78.6,71.1,28.99,SE,135,0.0,0.0,78,0.00,,,0.00,WUHU216HW,2013-06-15 02:55:00,
2013-06-14 22:00:00,78.6,71.1,28.99,SE,135,0.0,0.0,78,0.00,,,0.00,WUHU216HW,2013-06-15 03:00:00,
2013-06-14 22:05:00,78.6,71.1,28.99,SSE,158,3.1,3.1,78,0.00,,,0.00,WUHU216HW,2013-06-15 03:05:00,
2013-06-14 22:10:00,78.6,71.1,28.99,SE,135,0.0,3.1,78,0.00,,,0.00,WUHU216HW,2013-06-15 03:10:00,
2013-06-14 22:15:00,78.6,71.1,29.00,NE,45,0.0,0.0,78,0.00,,,0.00,WUHU216HW,2013-06-15 03:15:00,
2013-06-14 22:20:00,78.4,70.9,29.00,NE,45,0.0,0.0,78,0.00,,,0.00,WUHU216HW,2013-06-15 03:20:00,
2013-06-14 22:25:00,78.4,70.9,29.00,ENE,68,0.0,0.0,78,0.00,,,0.00,WUHU216HW,2013-06-15 03:25:00,
2013-06-14 22:30:00,78.0,70.6,29.01,ENE,68,0.0,0.0,78,0.00,,,0.00,WUHU216HW,2013-06-15 03:30:00,
2013-06-14 22:35:00,78.0,70.6,29.01,ENE,68,0.0,0.0,78,0.00,,,0.00,WUHU216HW,2013-06-15 03:35:00,
2013-06-14 22:40:00,77.9,70.4,29.01,ENE,68,0.0,0.0,78,0.00,,,0.00,WUHU216HW,2013-06-15 03:40:00,
2013-06-14 22:45:00,77.7,70.2,29.02,ENE,68,0.0,0.0,78,0.00,,,0.00,WUHU216HW,2013-06-15 03:45:00,
2013-06-14 22:50:00,77.5,70.1,29.02,ENE,68,0.0,0.0,78,0.00,,,0.00,WUHU216HW,2013-06-15 03:50:00,
2013-06-14 22:55:00,77.3,69.9,29.02,ENE,68,0.0,0.0,78,0.00,,,0.00,WUHU216HW,2013-06-15 03:55:00,
2013-06-14 23:00:00,77.1,69.7,29.02,ENE,68,0.0,0.0,78,0.00,,,0.00,WUHU216HW,2013-06-15 04:00:00,
2013-06-14 23:01:00,77.1,69.7,29.01,ENE,68,0.0,0.0,78,0.00,,,0.00,WUHU216HW,2013-06-15 04:01:00,
2013-06-14 23:03:00,77.1,69.7,29.01,ENE,68,0.0,0.0,78,0.00,,,0.00,WUHU216HW,2013-06-15 04:03:00,
2013-06-14 23:08:00,77.1,69.7,29.01,ENE,68,0.0,0.0,79,0.00,,,0.00,WUHU216HW,2013-06-15 04:08:00,
2013-06-14 23:13:00,76.8,69.7,29.01,ENE,68,0.0,0.0,79,0.00,,,0.00,WUHU216HW,2013-06-15 04:13:00,
2013-06-14 23:18:00,76.6,69.6,29.01,ENE,68,0.0,0.0,79,0.00,,,0.00,WUHU216HW,2013-06-15 04:18:00,
2013-06-14 23:23:00,76.4,69.8,29.01,ENE,68,0.0,0.0,80,0.00,,,0.00,WUHU216HW,2013-06-15 04:23:00,
2013-06-14 23:28:00,76.2,69.6,29.00,ENE,68,0.0,0.0,80,0.00,,,0.00,WUHU216HW,2013-06-15 04:28:00,
2013-06-14 23:33:00,76.1,69.5,29.01,SE,135,0.0,0.0,80,0.00,,,0.00,WUHU216HW,2013-06-15 04:33:00,
2013-06-14 23:38:00,76.1,69.5,29.01,SE,135,0.0,0.0,80,0.00,,,0.00,WUHU216HW,2013-06-15 04:38:00,
2013-06-14 23:43:00,75.9,69.3,29.01,SE,135,0.0,0.0,80,0.00,,,0.00,WUHU216HW,2013-06-15 04:43:00,
2013-06-14 23:48:00,75.9,69.3,29.01,SE,135,0.0,0.0,80,0.00,,,0.00,WUHU216HW,2013-06-15 04:48:00,
2013-06-14 23:53:00,75.9,69.2,29.00,SE,135,0.0,0.0,80,0.00,,,0.00,WUHU216HW,2013-06-15 04:53:00,
2013-06-14 23:58:00,75.7,69.5,29.01,SE,135,0.0,0.0,81,0.00,,,0.00,WUHU216HW,2013-06-15 04:58:00,